GW4659 Weather Reports


time (UTC)temp
F
wind
direction
speed
knots
gust
knots
rain 1hr
in
rain 24hr
in
rain mn
in
humidity
%
barometer
mb
20260505011000 67 76 0.0 0.0 0.00 0.00 0.00 50 1014.5
20260505010002 68 76 0.0 0.9 0.00 0.00 0.00 49 1014.5
20260505005002 69 76 0.0 0.9 0.00 0.00 0.00 49 1014.4
20260505003959 70 76 0.0 0.9 0.00 0.00 0.00 48 1014.3
20260505003002 71 76 0.0 1.7 0.00 0.00 0.00 46 1014.2
20260505002000 72 3 0.0 0.9 0.00 0.00 0.00 45 1014.0
20260505001002 73 136 0.0 0.9 0.00 0.00 0.00 44 1014.0
20260505000002 74 132 0.0 1.7 0.00 0.00 0.00 43 1014.1
20260504233959 76 281 0.0 1.7 0.00 0.00 0.00 39 1014.1
20260504232000 78 274 0.0 2.6 0.00 0.00 0.00 37 1014.3
20260504225959 78 17 0.9 3.5 0.00 0.00 0.00 38 1014.4
20260504223959 77 268 0.9 3.5 0.00 0.00 0.00 38 1014.5
20260504221001 78 280 0.9 5.2 0.00 0.00 0.00 37 1014.8
20260504220003 78 101 0.9 2.6 0.00 0.00 0.00 38 1014.6
20260504215000 78 109 0.9 2.6 0.00 0.00 0.00 38 1014.9
20260504214005 78 284 0.9 4.3 0.00 0.00 0.00 37 1014.8
20260504213000 79 276 0.0 4.3 0.00 0.00 0.00 39 1015.1
20260504212006 80 290 0.9 5.2 0.00 0.00 0.00 37 1015.0
20260504210003 81 285 0.9 2.6 0.00 0.00 0.00 36 1015.0
20260504204959 81 101 0.9 2.6 0.00 0.00 0.00 36 1015.0
20260504203959 81 343 0.9 5.2 0.00 0.00 0.00 36 1015.0
20260504203005 81 276 0.9 2.6 0.00 0.00 0.00 35 1015.2
20260504201959 81 61 0.9 2.6 0.00 0.00 0.00 35 1015.3
20260504200959 81 278 0.0 2.6 0.00 0.00 0.00 35 1015.4
20260504200002 80 277 0.9 2.6 0.00 0.00 0.00 37 1015.5
20260504194002 79 229 0.9 1.7 0.00 0.00 0.00 38 1015.8
20260504193000 79 89 0.9 2.6 0.00 0.00 0.00 36 1016.0
20260504190959 79 274 0.0 3.5 0.00 0.00 0.00 39 1016.0
20260504185959 79 94 0.9 1.7 0.00 0.00 0.00 38 1016.4
20260504185003 79 281 0.9 3.5 0.00 0.00 0.00 39 1016.6
20260504183959 81 265 0.0 2.6 0.00 0.00 0.00 41 1016.5
20260504182000 78 288 1.7 3.5 0.00 0.00 0.00 40 1016.9
20260504181003 80 295 0.9 4.3 0.00 0.00 0.00 40 1017.0
20260504180002 79 240 0.0 1.7 0.00 0.00 0.00 43 1017.2
20260504174959 79 247 0.0 7.0 0.00 0.00 0.00 44 1017.1
20260504173958 78 105 0.9 3.5 0.00 0.00 0.00 44 1017.2
20260504173000 79 289 0.0 2.6 0.00 0.00 0.00 40 1017.4
20260504172006 79 266 0.0 0.9 0.00 0.00 0.00 41 1017.6
20260504170959 77 288 0.9 3.5 0.00 0.00 0.00 44 1018.0
20260504140958 70 121 0.0 1.7 0.00 0.00 0.00 54 1018.9
20260504081959 45 271 0.0 0.0 0.00 0.00 0.00 90 1018.0
20260504080959 45 271 0.0 0.0 0.00 0.00 0.00 89 1018.3
20260504045016 49 271 0.0 0.0 0.00 0.00 0.00 81 1019.5
20260504044016 50 271 0.0 0.0 0.00 0.00 0.00 80 1019.5
20260504043017 50 271 0.0 0.0 0.00 0.00 0.00 80 1019.6
20260504041016 50 271 0.0 0.0 0.00 0.00 0.00 78 1019.6
20260504040018 50 271 0.0 0.0 0.00 0.00 0.00 77 1019.7
20260504033015 51 271 0.0 0.0 0.00 0.00 0.00 76 1020.1
20260504032015 52 271 0.0 0.0 0.00 0.00 0.00 75 1020.2
20260504031015 52 271 0.0 0.0 0.00 0.00 0.00 73 1020.1
20260504025016 53 271 0.0 0.0 0.00 0.00 0.00 71 1019.8
20260504024016 53 271 0.0 0.0 0.00 0.00 0.00 70 1019.7
20260504023017 54 271 0.0 0.0 0.00 0.00 0.00 69 1019.6
20260504022016 54 271 0.0 0.0 0.00 0.00 0.00 68 1019.6
20260504021017 54 271 0.0 0.0 0.00 0.00 0.00 67 1019.5
20260504020018 55 271 0.0 0.0 0.00 0.00 0.00 66 1019.4
20260504015016 55 271 0.0 0.0 0.00 0.00 0.00 64 1019.3
20260504014016 56 271 0.0 0.0 0.00 0.00 0.00 63 1019.4
20260504013016 57 271 0.0 0.0 0.00 0.00 0.00 62 1019.0